Location: Unspecified
(0.0000°N, 0.0000°E)
Time: 12:58:05
(UTC+00:00)

Tiangong 1 - Pass Details

Date: 28 May 2017
Orbit: 323 x 350 km, 42.8° (Epoch: 25 May)

Event Time Altitude Azimuth Distance (km) Brightness Sun altitude
Exits shadow 04:33:29 25° 143° (SE) 709 2.5 -19.4°
Maximum altitude 04:33:42 25° 135° (SE) 703 2.6 -19.4°
Drops below altitude 10° 04:36:06 10° 76° (ENE) 1,246 4.9 -18.8°
Sets 04:38:17 0° 62° (ENE) 2,083 6.5 -18.3°
